EW1152 Weather Reports


Display with metric or nautical units.
time (UTC)temp
F
wind
direction
speed
MPH
gust
MPH
rain 1hr
in
rain 24hr
in
rain mn
in
humidity
%
barometer
mb
20190219041706 21 277 6.0 12.0 0.00 0.06 0.06 73 1021.6
20190219041207 21 298 5.0 14.0 0.00 0.06 0.06 73 1021.5
20190219040705 21 304 6.0 14.0 0.00 0.06 0.06 73 1021.5
20190219040207 21 297 6.0 14.0 0.00 0.06 0.06 73 1021.4
20190219035705 21 309 6.0 21.0 0.00 0.06 0.06 74 1021.3
20190219035205 22 302 7.0 21.0 0.00 0.06 0.06 73 1021.1
20190219034732 22 293 7.0 21.0 0.00 0.06 0.06 73 1021.0
20190219034205 22 321 7.0 15.0 0.00 0.06 0.06 74 1020.8
20190219033706 22 278 7.0 16.0 0.00 0.06 0.06 74 1020.7
20190219033205 22 306 8.0 16.0 0.00 0.06 0.06 75 1020.5
20190219032705 22 271 8.0 15.0 0.00 0.06 0.06 75 1020.5
20190219032206 22 289 7.0 15.0 0.00 0.06 0.06 76 1020.4
20190219031709 23 303 7.0 16.0 0.00 0.06 0.06 76 1020.3
20190219031205 23 275 8.0 21.0 0.00 0.06 0.06 76 1020.3
20190219030705 23 283 8.0 21.0 0.00 0.06 0.06 76 1020.0
20190219030207 23 280 10.0 21.0 0.00 0.06 0.06 75 1019.9
20190219025705 24 303 9.0 19.0 0.00 0.06 0.06 76 1019.7
20190219025206 24 239 9.0 20.0 0.00 0.06 0.06 77 1019.7
20190219024705 24 302 10.0 20.0 0.00 0.06 0.06 77 1019.7
20190219024206 24 259 9.0 20.0 0.00 0.06 0.06 77 1019.6
20190219023706 24 311 9.0 19.0 0.00 0.06 0.06 78 1019.5
20190219023222 25 311 9.0 15.0 0.00 0.06 0.06 79 1019.3
20190219022705 25 292 7.0 15.0 0.00 0.06 0.06 80 1019.2
20190219022206 25 281 7.0 16.0 0.00 0.06 0.06 81 1018.9
20190219021706 25 257 8.0 17.0 0.00 0.06 0.06 81 1018.6
20190219021205 25 308 7.0 17.0 0.00 0.06 0.06 81 1018.5
20190219020705 25 319 7.0 17.0 0.00 0.06 0.06 82 1018.4
20190219020206 26 285 7.0 17.0 0.00 0.06 0.06 82 1018.2
20190219015706 26 277 7.0 17.0 0.00 0.06 0.06 82 1018.1
20190219015205 26 300 7.0 15.0 0.00 0.06 0.06 83 1017.8
20190219014706 26 289 7.0 14.0 0.00 0.06 0.06 83 1017.7
20190219014209 26 245 6.0 14.0 0.00 0.06 0.06 84 1017.7
20190219013715 26 268 5.0 10.0 0.00 0.06 0.06 84 1017.6
20190219013205 26 252 4.0 10.0 0.00 0.06 0.06 84 1017.5
20190219012705 26 276 3.0 9.0 0.00 0.06 0.06 84 1017.5
20190219012207 26 294 4.0 7.0 0.00 0.06 0.06 84 1017.4
20190219011705 26 290 3.0 7.0 0.00 0.06 0.06 84 1017.3
20190219011206 26 297 3.0 11.0 0.00 0.06 0.06 84 1017.1
20190219010705 26 277 4.0 11.0 0.00 0.06 0.06 84 1016.9
20190219010205 27 273 4.0 9.0 0.00 0.06 0.06 84 1016.9
20190219005705 27 300 4.0 12.0 0.00 0.06 0.06 84 1016.8
20190219005205 27 313 5.0 12.0 0.00 0.06 0.06 85 1016.8
20190219004706 27 250 5.0 11.0 0.00 0.06 0.06 86 1016.7
20190219004204 27 278 5.0 11.0 0.00 0.06 0.06 87 1016.5
20190219003705 27 288 4.0 11.0 0.00 0.06 0.06 88 1016.3
20190219003207 27 329 4.0 11.0 0.00 0.06 0.06 88 1016.1
20190219002706 27 326 3.0 10.0 0.00 0.06 0.06 89 1015.9
20190219002206 27 319 4.0 10.0 0.00 0.06 0.06 90 1015.8
20190219001705 27 281 4.0 7.0 0.00 0.06 0.06 90 1015.6
20190219001206 27 289 3.0 6.0 0.00 0.06 0.06 90 1015.5
20190219000719 27 292 3.0 5.0 0.00 0.06 0.06 90 1015.4
20190219000205 27 268 2.0 4.0 0.00 0.06 0.06 90 1015.3
20190218235707 27 307 2.0 3.0 0.00 0.06 0.06 89 1015.2
20190218235205 28 310 2.0 5.0 0.00 0.06 0.06 89 1015.0
20190218234719 28 302 2.0 7.0 0.00 0.06 0.06 89 1014.8
20190218234207 28 302 2.0 7.0 0.00 0.06 0.06 90 1014.7
20190218233705 28 296 2.0 7.0 0.00 0.06 0.06 90 1014.7
20190218233232 28 259 2.0 5.0 0.00 0.06 0.06 90 1014.6
20190218232705 28 281 2.0 5.0 0.00 0.06 0.06 90 1014.4
20190218232209 28 277 2.0 4.0 0.00 0.06 0.06 90 1014.2
20190218231707 28 297 1.0 4.0 0.00 0.06 0.06 89 1014.0
20190218231207 28 314 1.0 4.0 0.00 0.06 0.06 88 1013.7
20190218230705 28 303 1.0 4.0 0.00 0.06 0.06 88 1013.5
20190218230206 28 303 1.0 4.0 0.00 0.06 0.06 88 1013.3
20190218225705 29 288 1.0 4.0 0.00 0.06 0.06 88 1013.2
20190218225205 29 324 1.0 3.0 0.01 0.06 0.06 88 1013.1
20190218224713 29 324 1.0 5.0 0.01 0.06 0.06 88 1012.9
20190218224219 29 333 2.0 5.0 0.01 0.06 0.06 89 1012.9
20190218223704 29 334 2.0 5.0 0.01 0.06 0.06 88 1012.8
20190218223208 29 323 2.0 5.0 0.01 0.06 0.06 88 1012.6
20190218222706 29 257 2.0 3.0 0.01 0.06 0.06 88 1012.5
20190218222206 29 314 1.0 5.0 0.01 0.06 0.06 87 1012.3
20190218221707 29 327 1.0 7.0 0.01 0.06 0.06 88 1012.1
20190218221205 30 327 2.0 11.0 0.01 0.06 0.06 88 1011.9
20190218220719 30 318 2.0 11.0 0.01 0.06 0.06 88 1011.7
20190218220205 30 281 3.0 11.0 0.01 0.06 0.06 88 1011.7
20190218215705 30 329 3.0 6.0 0.01 0.06 0.06 87 1011.6
20190218215207 30 338 3.0 8.0 0.00 0.05 0.05 88 1011.5
20190218214705 30 294 2.0 8.0 0.00 0.05 0.05 88 1011.4
20190218214209 30 311 2.0 7.0 0.00 0.05 0.05 88 1011.3
20190218213705 31 348 2.0 7.0 0.00 0.05 0.05 87 1011.2
20190218213206 31 349 3.0 7.0 0.00 0.05 0.05 88 1011.1
20190218212707 31 305 3.0 5.0 0.00 0.05 0.05 88 1010.9
20190218212207 31 323 2.0 7.0 0.00 0.05 0.05 88 1010.9
20190218211706 31 317 2.0 7.0 0.01 0.05 0.05 89 1010.8
20190218211205 31 284 3.0 7.0 0.01 0.05 0.05 89 1010.7
20190218210706 31 5 3.0 9.0 0.01 0.05 0.05 88 1010.6
20190218210206 31 343 2.0 9.0 0.01 0.05 0.05 89 1010.4
20190218205707 31 17 2.0 9.0 0.01 0.05 0.05 89 1010.3
20190218205205 31 12 3.0 7.0 0.01 0.05 0.05 89 1010.2
20190218204705 31 330 3.0 7.0 0.01 0.05 0.05 89 1010.2
20190218204208 31 315 2.0 7.0 0.01 0.05 0.05 89 1010.0
20190218203704 31 338 2.0 7.0 0.02 0.05 0.05 89 1009.9
20190218203208 31 344 2.0 6.0 0.02 0.05 0.05 90 1009.8
20190218202705 31 322 2.0 7.0 0.02 0.05 0.05 89 1009.8
20190218202205 32 13 2.0 7.0 0.02 0.05 0.05 90 1009.6
20190218201706 32 311 2.0 7.0 0.01 0.04 0.04 90 1009.4
20190218201205 32 355 2.0 5.0 0.01 0.04 0.04 90 1009.3
20190218200707 32 349 1.0 4.0 0.01 0.04 0.04 90 1009.3
20190218200205 32 329 1.0 5.0 0.02 0.04 0.04 90 1009.1
20190218195704 32 333 1.0 5.0 0.02 0.04 0.04 90 1009.0
20190218195206 32 339 2.0 5.0 0.02 0.04 0.04 89 1009.0
20190218194708 32 279 2.0 5.0 0.02 0.04 0.04 90 1008.9
20190218194207 32 345 2.0 5.0 0.02 0.04 0.04 90 1008.8
20190218193715 32 5 2.0 5.0 0.01 0.03 0.03 89 1008.8
20190218193228 32 296 2.0 5.0 0.02 0.03 0.03 90 1008.8
20190218192705 32 317 2.0 5.0 0.02 0.03 0.03 90 1008.8
20190218192208 32 291 2.0 5.0 0.02 0.03 0.03 90 1008.8
20190218191705 32 271 2.0 5.0 0.02 0.03 0.03 90 1008.8
20190218191206 32 279 2.0 5.0 0.02 0.03 0.03 90 1008.8
20190218190711 32 284 2.0 5.0 0.01 0.02 0.02 90 1008.9
20190218190205 32 355 2.0 5.0 0.01 0.02 0.02 90 1008.8
20190218185708 32 309 2.0 6.0 0.01 0.02 0.02 90 1008.9
20190218185206 33 281 2.0 6.0 0.01 0.02 0.02 90 1008.9
20190218184704 33 323 2.0 6.0 0.01 0.02 0.02 90 1008.8
20190218184208 33 338 2.0 5.0 0.01 0.02 0.02 91 1008.8
20190218183723 33 306 2.0 5.0 0.01 0.02 0.01 90 1008.8
20190218183209 33 325 2.0 5.0 0.00 0.01 0.01 91 1008.7
20190218182706 33 250 2.0 6.0 0.01 0.01 0.01 91 1008.8
20190218182206 33 305 2.0 6.0 0.01 0.01 0.01 91 1008.7
20190218181705 33 292 3.0 6.0 0.01 0.01 0.01 90 1008.5
20190218181205 33 289 3.0 6.0 0.01 0.01 0.01 91 1008.4
20190218180708 33 296 2.0 6.0 0.01 0.01 0.01 90 1008.5
20190218180205 33 267 2.0 6.0 0.01 0.01 0.01 91 1008.5
20190218175705 33 340 2.0 6.0 0.01 0.01 0.01 90 1008.5
20190218175206 33 313 2.0 5.0 0.01 0.01 0.01 90 1008.6
20190218174706 33 292 2.0 5.0 0.01 0.01 0.01 90 1008.6
20190218174210 33 277 2.0 5.0 0.01 0.01 0.01 90 1008.5
20190218173705 33 334 1.0 5.0 0.01 0.01 0.01 90 1008.4
20190218173206 33 285 1.0 4.0 0.00 0.00 0.00 91 1008.3
20190218172705 32 341 1.0 4.0 0.00 0.00 0.00 90 1008.3
20190218172205 32 348 1.0 4.0 0.00 0.00 0.00 90 1008.2
20190218171706 32 334 1.0 5.0 0.00 0.00 0.00 90 1008.4
20190218171205 32 333 2.0 5.0 0.00 0.00 0.00 91 1008.4
20190218170705 32 19 2.0 5.0 0.00 0.00 0.00 91 1008.3
20190218170205 32 290 2.0 7.0 0.00 0.00 0.00 90 1008.3
20190218165710 32 342 2.0 7.0 0.00 0.00 0.00 91 1008.4
20190218165207 32 327 2.0 7.0 0.00 0.00 0.00 90 1008.4
20190218164709 32 355 2.0 4.0 0.00 0.00 0.00 90 1008.4
20190218164207 32 349 1.0 5.0 0.00 0.00 0.00 91 1008.5
20190218163706 32 333 2.0 5.0 0.00 0.00 0.00 90 1008.7
20190218163205 32 323 2.0 6.0 0.00 0.00 0.00 91 1008.7
20190218162705 31 5 2.0 6.0 0.00 0.00 0.00 91 1008.7
20190218162206 31 344 2.0 5.0 0.00 0.00 0.00 90 1008.7
20190218161705 31 329 1.0 5.0 0.00 0.00 0.00 90 1008.8
20190218161206 31 0 2.0 5.0 0.00 0.00 0.00 91 1008.9
20190218160706 31 343 2.0 5.0 0.00 0.00 0.00 91 1009.0
20190218160205 31 330 2.0 5.0 0.00 0.00 0.00 91 1009.0
20190218155707 31 5 2.0 5.0 0.00 0.00 0.00 91 1008.8
20190218155205 31 11 2.0 3.0 0.00 0.00 0.00 91 1008.8
20190218154707 31 329 1.0 3.0 0.00 0.00 0.00 91 1008.8
20190218154205 31 338 1.0 5.0 0.00 0.00 0.00 92 1008.8
20190218153706 30 320 1.0 6.0 0.00 0.00 0.00 92 1008.8
20190218153205 30 338 1.0 6.0 0.00 0.00 0.00 92 1008.8
20190218152707 30 350 1.0 6.0 0.00 0.00 0.00 92 1008.8
20190218152205 30 311 1.0 4.0 0.00 0.00 0.00 92 1008.8
20190218151706 30 9 1.0 4.0 0.00 0.00 0.00 93 1008.9
20190218151211 30 304 1.0 3.0 0.00 0.00 0.00 93 1009.0
20190218150707 30 320 1.0 3.0 0.00 0.00 0.00 93 1009.2
20190218150205 30 330 1.0 3.0 0.00 0.00 0.00 93 1009.0
20190218145710 30 325 1.0 5.0 0.00 0.00 0.00 93 1009.2
20190218145206 29 327 1.0 5.0 0.00 0.00 0.00 93 1009.3
20190218144709 29 327 1.0 5.0 0.00 0.00 0.00 93 1009.4
20190218144204 29 336 1.0 5.0 0.00 0.00 0.00 93 1009.2
20190218143705 29 355 2.0 5.0 0.00 0.00 0.00 93 1009.4
20190218143206 29 0 2.0 4.0 0.00 0.00 0.00 93 1009.3
20190218142704 29 29 1.0 5.0 0.00 0.00 0.00 93 1009.1
20190218142210 29 23 2.0 5.0 0.00 0.00 0.00 93 1008.9
20190218141706 29 355 2.0 7.0 0.00 0.00 0.00 93 1008.8
20190218141205 29 340 2.0 7.0 0.00 0.00 0.00 92 1009.0
20190218140708 29 13 2.0 4.0 0.00 0.00 0.00 92 1009.1
20190218140205 29 49 2.0 3.0 0.00 0.00 0.00 92 1009.2
20190218135706 29 30 1.0 5.0 0.00 0.00 0.00 93 1009.3
20190218135206 29 11 2.0 5.0 0.00 0.00 0.00 92 1009.2
20190218134706 29 11 2.0 5.0 0.00 0.00 0.00 93 1009.4
20190218134207 28 11 2.0 5.0 0.00 0.00 0.00 93 1009.3
20190218133718 28 42 2.0 5.0 0.00 0.00 0.00 92 1009.3
20190218133217 28 346 2.0 5.0 0.00 0.00 0.00 93 1009.3
20190218132704 28 348 2.0 5.0 0.00 0.00 0.00 93 1009.5
20190218132207 28 32 2.0 5.0 0.00 0.00 0.00 93 1009.4
20190218131705 28 15 2.0 4.0 0.00 0.00 0.00 93 1009.2
20190218131205 28 9 2.0 4.0 0.00 0.00 0.00 93 1009.7
20190218130706 28 17 1.0 4.0 0.00 0.00 0.00 93 1010.0
20190218130213 28 0 1.0 5.0 0.00 0.00 0.00 93 1009.8
20190218125705 28 355 2.0 5.0 0.00 0.00 0.00 93 1010.0
20190218125207 28 14 2.0 5.0 0.00 0.00 0.00 93 1009.7
20190218124706 28 38 2.0 4.0 0.00 0.00 0.00 92 1009.9
20190218124206 28 13 1.0 3.0 0.00 0.00 0.00 93 1010.0
20190218123705 28 13 1.0 3.0 0.00 0.00 0.00 93 1010.1
20190218123208 28 13 1.0 3.0 0.00 0.00 0.00 93 1010.5
20190218122706 28 13 1.0 3.0 0.00 0.00 0.00 93 1010.4
20190218122206 28 13 1.0 3.0 0.00 0.00 0.00 93 1010.4
20190218121705 28 13 1.0 3.0 0.00 0.00 0.00 93 1010.0
20190218121207 28 44 1.0 4.0 0.00 0.00 0.00 93 1009.5
20190218120705 28 48 1.0 4.0 0.00 0.00 0.00 92 1009.4
20190218120205 28 48 1.0 3.0 0.00 0.00 0.00 92 1009.6
20190218115706 28 46 1.0 3.0 0.00 0.00 0.00 92 1009.8
20190218115233 28 46 1.0 3.0 0.00 0.00 0.00 92 1009.8
20190218114706 28 48 1.0 3.0 0.00 0.00 0.00 92 1010.0
20190218114217 28 55 1.0 3.0 0.00 0.00 0.00 92 1009.8
20190218113705 28 62 1.0 3.0 0.00 0.00 0.00 92 1010.1
20190218113206 28 76 1.0 3.0 0.00 0.00 0.00 92 1010.0
20190218112710 28 69 1.0 4.0 0.00 0.00 0.00 92 1010.2
20190218112205 28 34 1.0 4.0 0.00 0.00 0.00 92 1010.3
20190218111708 28 56 2.0 4.0 0.00 0.00 0.00 92 1010.2
20190218111206 28 67 2.0 5.0 0.00 0.00 0.00 92 1009.7
20190218110705 28 41 2.0 5.0 0.00 0.00 0.00 92 1009.9
20190218110206 28 57 2.0 5.0 0.00 0.00 0.00 92 1009.7
20190218105707 28 74 2.0 5.0 0.00 0.00 0.00 92 1010.2
20190218105207 28 59 2.0 5.0 0.00 0.00 0.00 93 1010.3
20190218104706 28 88 2.0 3.0 0.00 0.00 0.00 93 1010.2
20190218104205 28 59 1.0 3.0 0.00 0.00 0.00 93 1010.4
20190218103705 28 59 1.0 3.0 0.00 0.00 0.00 93 1010.4
20190218103205 28 59 1.0 3.0 0.00 0.00 0.00 93 1010.8
20190218102705 28 59 1.0 3.0 0.00 0.00 0.00 93 1010.9
20190218102206 28 55 1.0 3.0 0.00 0.00 0.00 93 1010.7
20190218101705 28 55 1.0 4.0 0.00 0.00 0.00 93 1010.8
20190218101210 28 55 1.0 4.0 0.00 0.00 0.00 93 1010.8
20190218100707 28 55 1.0 4.0 0.00 0.00 0.00 93 1010.8
20190218100206 28 121 1.0 2.0 0.00 0.00 0.00 93 1011.1
20190218095706 28 121 1.0 2.0 0.00 0.00 0.00 93 1011.2
20190218095208 28 123 1.0 2.0 0.00 0.00 0.00 93 1011.1
20190218094704 28 123 1.0 2.0 0.00 0.00 0.00 93 1011.6
20190218094207 28 123 1.0 2.0 0.00 0.00 0.00 93 1011.6
20190218093708 28 123 0.0 3.0 0.00 0.00 0.00 93 1011.5
20190218093205 28 123 0.0 3.0 0.00 0.00 0.00 93 1011.6
20190218092706 28 123 0.0 3.0 0.00 0.00 0.00 93 1011.6
20190218092206 28 123 0.0 2.0 0.00 0.00 0.00 93 1011.6
20190218091706 28 123 0.0 2.0 0.00 0.00 0.00 93 1011.4
20190218091205 28 123 1.0 2.0 0.00 0.00 0.00 93 1011.4
20190218090708 28 123 1.0 2.0 0.00 0.00 0.00 93 1011.4
20190218090220 28 123 1.0 2.0 0.00 0.00 0.00 93 1011.6
20190218085705 28 123 1.0 2.0 0.00 0.00 0.00 93 1011.7
20190218085209 28 123 1.0 2.0 0.00 0.00 0.00 93 1011.9
20190218084706 28 123 1.0 2.0 0.00 0.00 0.00 93 1011.6
20190218084205 28 123 0.0 2.0 0.00 0.00 0.00 93 1012.1
20190218083706 28 123 1.0 2.0 0.00 0.00 0.00 93 1012.3
20190218083207 28 123 1.0 2.0 0.00 0.00 0.00 93 1012.0
20190218082704 28 123 1.0 2.0 0.00 0.00 0.00 93 1012.1
20190218082206 28 123 1.0 2.0 0.00 0.00 0.00 92 1012.0
20190218081705 28 123 0.0 1.0 0.00 0.00 0.00 92 1012.1
20190218081205 28 123 0.0 1.0 0.00 0.00 0.00 92 1012.2
20190218080706 28 123 0.0 2.0 0.00 0.00 0.00 92 1012.4
20190218080205 28 123 0.0 2.0 0.00 0.00 0.00 92 1012.4
20190218075705 28 123 0.0 2.0 0.00 0.00 0.00 92 1012.8
20190218075205 28 123 0.0 2.0 0.00 0.00 0.00 92 1012.3
20190218074706 28 123 0.0 2.0 0.00 0.00 0.00 92 1012.4
20190218074206 28 123 0.0 2.0 0.00 0.00 0.00 91 1012.8
20190218073706 28 123 0.0 2.0 0.00 0.00 0.00 91 1012.9
20190218073206 28 123 0.0 2.0 0.00 0.00 0.00 92 1013.1
20190218072707 28 123 0.0 3.0 0.00 0.00 0.00 92 1013.3
20190218072206 28 123 1.0 3.0 0.00 0.00 0.00 91 1013.5
20190218071709 28 123 1.0 3.0 0.00 0.00 0.00 91 1013.0
20190218071205 28 123 1.0 3.0 0.00 0.00 0.00 91 1013.2
20190218070709 28 124 0.0 2.0 0.00 0.00 0.00 91 1013.4
20190218070205 28 142 0.0 3.0 0.00 0.00 0.00 91 1014.0
20190218065704 28 142 0.0 3.0 0.00 0.00 0.00 91 1013.6
20190218065209 28 142 1.0 3.0 0.00 0.00 0.00 91 1013.6
20190218064731 28 142 0.0 2.0 0.00 0.00 0.00 91 1013.9
20190218064205 28 138 1.0 2.0 0.00 0.00 0.00 91 1013.8
20190218063705 28 139 1.0 2.0 0.00 0.00 0.00 91 1013.9
20190218063207 28 163 1.0 2.0 0.00 0.00 0.00 91 1014.1
20190218062706 28 169 0.0 2.0 0.00 0.00 0.00 91 1014.4
20190218062204 28 169 0.0 2.0 0.00 0.00 0.00 91 1014.4
20190218061705 28 169 0.0 1.0 0.00 0.00 0.00 91 1014.4
20190218061205 28 169 0.0 0.0 0.00 0.00 0.00 91 1014.5
20190218060706 28 169 0.0 1.0 0.00 0.00 0.00 91 1014.5
20190218060221 28 169 0.0 1.0 0.00 0.00 0.00 90 1014.7
20190218055711 28 169 0.0 1.0 0.00 0.00 0.00 90 1014.7
20190218055204 28 169 0.0 1.0 0.00 0.00 0.00 90 1014.8
20190218054705 28 169 0.0 1.0 0.00 0.00 0.00 89 1015.0
20190218054206 28 169 0.0 1.0 0.00 0.00 0.00 89 1014.9
20190218053708 28 169 0.0 1.0 0.00 0.00 0.00 89 1015.3
20190218053213 28 169 0.0 2.0 0.00 0.00 0.00 89 1015.6
20190218052705 28 169 0.0 2.0 0.00 0.00 0.00 88 1015.3
20190218052206 28 169 1.0 2.0 0.00 0.00 0.00 88 1015.2
20190218051705 28 169 1.0 2.0 0.00 0.00 0.00 87 1014.6
20190218051206 28 169 0.0 2.0 0.00 0.00 0.00 86 1014.7
20190218050705 29 169 0.0 2.0 0.00 0.00 0.00 85 1015.4
20190218050208 29 169 1.0 2.0 0.00 0.00 0.00 85 1015.0
20190218045706 29 169 1.0 4.0 0.00 0.00 0.00 83 1015.1
20190218045207 30 221 1.0 4.0 0.00 0.00 0.00 82 1015.3
20190218044705 30 222 1.0 4.0 0.00 0.00 0.00 80 1015.5
20190218044206 30 238 1.0 3.0 0.00 0.00 0.00 76 1015.7
20190218043708 30 180 1.0 3.0 0.00 0.00 0.00 73 1015.5
20190218043205 31 133 1.0 3.0 0.00 0.00 0.00 70 1015.3
20190218042705 31 175 1.0 2.0 0.00 0.00 0.00 69 1015.4
20190218042215 31 175 0.0 2.0 0.00 0.00 0.00 67 1015.5